DW8078 Weather Reports


Display with metric or nautical units.
time (UTC)temp
F
wind
direction
speed
MPH
gust
MPH
rain 1hr
in
rain 24hr
in
rain mn
in
humidity
%
barometer
mb
20170523122506 67 15 3.0 10.0 0.00 0.00 0.00 45 1015.7
20170523121007 68 360 3.0 12.0 0.00 0.00 0.00 44 1015.8
20170523115503 67 327 5.0 13.0 0.00 0.00 0.00 47 1016.0
20170523114003 67 17 4.0 10.0 0.00 0.00 0.00 47 1015.9
20170523112459 66 350 3.0 8.0 0.00 0.00 0.00 50 1015.9
20170523110956 66 19 2.0 8.0 0.00 0.00 0.00 52 1016.3
20170523105456 66 348 9.0 15.0 0.00 0.00 0.00 51 1016.4
20170523103955 65 314 5.0 15.0 0.00 0.00 0.00 53 1016.5
20170523102453 65 13 3.0 17.0 0.00 0.00 0.00 54 1016.5
20170523100954 64 26 4.0 13.0 0.00 0.00 0.00 53 1016.5
20170523095452 64 345 4.0 15.0 0.00 0.00 0.00 53 1016.5
20170523093948 64 15 4.0 15.0 0.00 0.00 0.00 52 1016.7
20170523092449 62 342 4.0 11.0 0.00 0.00 0.00 53 1016.6
20170523090944 62 350 8.0 14.0 0.00 0.00 0.00 51 1016.7
20170523085439 62 360 5.0 15.0 0.00 0.00 0.00 53 1016.7
20170523083937 61 309 7.0 16.0 0.00 0.00 0.00 52 1016.8
20170523082439 61 338 5.0 11.0 0.00 0.00 0.00 54 1016.8
20170523080938 61 308 0.0 0.0 0.00 0.00 0.00 53 1016.9
20170523075433 60 317 0.0 0.0 0.00 0.00 0.00 54 1017.0
20170523073923 59 291 0.0 0.0 0.00 0.00 0.00 55 1016.9
20170523072433 59 310 0.0 0.0 0.00 0.00 0.00 58 1017.0
20170523070923 59 294 0.0 0.0 0.00 0.00 0.00 59 1017.1
20170523065427 58 309 0.0 0.0 0.00 0.00 0.00 60 1017.2
20170523063911 58 344 0.0 0.0 0.00 0.00 0.00 63 1017.1
20170523062409 57 298 0.0 0.0 0.00 0.00 0.00 64 1017.2
20170523060904 56 317 0.0 0.0 0.00 0.00 0.00 65 1017.2
20170523055407 55 311 0.0 0.0 0.00 0.00 0.00 69 1017.1
20170523053855 54 297 0.0 0.0 0.00 0.00 0.00 77 1017.1
20170523052355 52 313 0.0 0.0 0.00 0.00 0.00 81 1017.1
20170523050852 50 314 0.0 0.0 0.00 0.00 0.00 84 1017.1
20170523045349 49 45 0.0 0.0 0.00 0.00 0.00 86 1017.1
20170523043846 48 45 0.0 0.0 0.00 0.00 0.00 86 1017.2
20170523042347 47 45 0.0 0.0 0.00 0.00 0.00 84 1017.3
20170523040841 47 45 0.0 0.0 0.00 0.00 0.00 83 1017.2
20170523035354 47 45 0.0 0.0 0.00 0.00 0.00 84 1017.2
20170523033843 45 45 0.0 0.0 0.00 0.00 0.00 86 1017.1
20170523032342 44 45 0.0 0.0 0.00 0.00 0.00 85 1017.1
20170523030852 44 45 0.0 0.0 0.00 0.00 0.00 85 1017.1
20170523025321 45 45 0.0 0.0 0.00 0.00 0.00 84 1017.2
20170523023817 45 45 0.0 0.0 0.00 0.00 0.00 84 1017.2
20170523022314 46 45 0.0 0.0 0.00 0.00 0.00 84 1017.3
20170523020818 46 45 0.0 0.0 0.00 0.00 0.00 83 1017.4
20170523015311 47 45 0.0 0.0 0.00 0.00 0.00 83 1017.6
20170523013818 46 45 0.0 0.0 0.00 0.00 0.00 82 1017.5
20170523012321 47 43 0.0 0.0 0.00 0.00 0.00 82 1017.6
20170523010819 47 37 0.0 0.0 0.00 0.00 0.00 83 1017.5
20170523005311 47 28 0.0 0.0 0.00 0.00 0.00 82 1017.5
20170523003806 48 26 0.0 0.0 0.00 0.00 0.00 81 1017.4
20170523002302 49 141 0.0 0.0 0.00 0.00 0.00 79 1017.4
20170523000807 49 136 0.0 0.0 0.00 0.00 0.00 77 1017.4
20170522235301 49 136 0.0 0.0 0.00 0.00 0.00 77 1017.5
20170522233810 50 136 0.0 0.0 0.00 0.00 0.00 76 1017.7
20170522232257 50 136 0.0 0.0 0.00 0.00 0.00 79 1017.7
20170522230800 50 136 0.0 0.0 0.00 0.00 0.00 77 1018.0
20170522225251 50 136 0.0 0.0 0.00 0.00 0.00 77 1018.0
20170522223804 51 136 0.0 0.0 0.00 0.00 0.00 72 1017.9
20170522222248 51 136 0.0 0.0 0.00 0.00 0.00 72 1018.1
20170522220744 52 136 0.0 0.0 0.00 0.00 0.00 69 1018.2
20170522215241 53 136 0.0 0.0 0.00 0.00 0.00 67 1018.2
20170522213744 54 132 0.0 0.0 0.00 0.00 0.00 66 1018.3
20170522212239 54 132 0.0 0.0 0.00 0.00 0.00 66 1018.3
20170522210738 54 88 0.0 0.0 0.00 0.00 0.00 65 1018.4
20170522205241 54 92 0.0 0.0 0.00 0.00 0.00 65 1018.3
20170522203739 54 136 0.0 0.0 0.00 0.00 0.00 65 1018.4
20170522202238 55 72 0.0 0.0 0.00 0.00 0.00 65 1018.5
20170522200740 56 92 0.0 2.0 0.00 0.00 0.00 69 1018.6
20170522195237 56 100 0.0 0.0 0.00 0.00 0.00 69 1018.6
20170522193733 57 108 0.0 3.0 0.00 0.00 0.00 68 1018.5
20170522192250 57 61 0.0 3.0 0.00 0.00 0.00 66 1018.5
20170522190732 58 126 0.0 5.0 0.00 0.00 0.00 64 1018.6
20170522185231 59 75 2.0 5.0 0.00 0.00 0.00 62 1018.7
20170522183742 59 69 1.0 5.0 0.00 0.00 0.00 61 1018.5
20170522182230 60 63 1.0 6.0 0.00 0.00 0.00 60 1018.6
20170522180732 61 56 0.0 6.0 0.00 0.00 0.00 59 1018.6
20170522175232 61 66 4.0 9.0 0.00 0.00 0.00 57 1018.7
20170522173738 62 72 2.0 9.0 0.00 0.00 0.00 57 1018.6
20170522172227 63 92 2.0 8.0 0.00 0.00 0.00 56 1018.7
20170522170726 64 90 1.0 8.0 0.00 0.00 0.00 55 1018.8
20170522165235 64 61 2.0 8.0 0.00 0.00 0.00 54 1018.8
20170522163735 64 53 3.0 7.0 0.00 0.00 0.00 54 1018.9
20170522162226 65 102 2.0 6.0 0.00 0.00 0.00 53 1018.7
20170522160726 66 128 0.0 4.0 0.00 0.00 0.00 53 1018.7
20170522155224 66 168 1.0 5.0 0.00 0.00 0.00 54 1019.1
20170522153728 65 87 1.0 7.0 0.00 0.00 0.00 53 1019.2
20170522152220 65 91 1.0 7.0 0.00 0.00 0.00 54 1019.3
20170522150723 65 102 1.0 6.0 0.00 0.00 0.00 53 1019.4
20170522145225 65 56 3.0 7.0 0.00 0.00 0.00 53 1019.6
20170522143717 65 121 1.0 8.0 0.00 0.00 0.00 55 1019.8
20170522142217 65 99 3.0 10.0 0.00 0.00 0.00 53 1019.8
20170522140719 66 67 3.0 10.0 0.00 0.00 0.00 53 1019.9
20170522135215 66 51 1.0 10.0 0.00 0.00 0.00 54 1020.0
20170522133714 67 126 0.0 4.0 0.00 0.00 0.00 53 1019.9
20170522132216 66 51 1.0 11.0 0.00 0.00 0.00 52 1020.0
20170522130712 66 57 2.0 8.0 0.00 0.00 0.00 51 1020.3
20170522125215 66 113 1.0 11.0 0.00 0.00 0.00 53 1020.3
20170522123721 66 38 2.0 10.0 0.00 0.00 0.00 52 1020.4